Time,TemperatureF,DewpointF,PressureIn,WindDirection,WindDirectionDegrees,WindSpeedMPH,WindSpeedGustMPH,Humidity,HourlyPrecipIn,Conditions,Clouds,dailyrainin,SoftwareType,DateUTC
2013-10-20 00:12:00,48.4,43.0,29.95,East,98,0.0,6.0,80,0.00,,,0.00,weatherlink.com 1.10,2013-10-20 04:12:00,
2013-10-20 00:27:00,48.1,42.0,29.95,ENE,59,0.0,2.0,80,0.00,,,0.00,weatherlink.com 1.10,2013-10-20 04:27:00,
2013-10-20 00:42:00,47.4,42.0,29.95,East,87,0.0,2.0,81,0.00,,,0.00,weatherlink.com 1.10,2013-10-20 04:42:00,
2013-10-20 00:57:00,47.1,42.0,29.95,SW,221,2.0,7.0,81,0.00,,,0.00,weatherlink.com 1.10,2013-10-20 04:57:00,
2013-10-20 01:12:00,47.1,42.0,29.95,NE,51,0.0,3.0,81,0.00,,,0.00,weatherlink.com 1.10,2013-10-20 05:12:00,
2013-10-20 01:27:00,46.8,41.0,29.96,ESE,109,0.0,11.0,80,0.00,,,0.00,weatherlink.com 1.10,2013-10-20 05:27:00,
2013-10-20 01:42:00,46.4,40.0,29.96,East,90,0.0,13.0,79,0.00,,,0.00,weatherlink.com 1.10,2013-10-20 05:42:00,
2013-10-20 01:57:00,45.9,40.0,29.96,ENE,76,2.0,10.0,79,0.00,,,0.00,weatherlink.com 1.10,2013-10-20 05:57:00,
2013-10-20 02:12:00,45.4,40.0,29.97,ESE,104,4.0,6.0,80,0.00,,,0.00,weatherlink.com 1.10,2013-10-20 06:12:00,
2013-10-20 02:28:00,45.2,40.0,29.98,East,84,1.0,5.0,81,0.00,,,0.00,weatherlink.com 1.10,2013-10-20 06:28:00,
2013-10-20 02:43:00,45.0,39.0,29.98,East,85,0.0,11.0,80,0.00,,,0.00,weatherlink.com 1.10,2013-10-20 06:43:00,
2013-10-20 02:58:00,44.9,39.0,29.98,ENE,70,2.0,5.0,80,0.00,,,0.00,weatherlink.com 1.10,2013-10-20 06:58:00,
2013-10-20 03:13:00,44.5,39.0,29.98,ENE,64,1.0,5.0,80,0.00,,,0.00,weatherlink.com 1.10,2013-10-20 07:13:00,
2013-10-20 03:28:00,44.0,38.0,29.98,ENE,59,2.0,4.0,80,0.00,,,0.00,weatherlink.com 1.10,2013-10-20 07:28:00,
2013-10-20 03:43:00,43.7,39.0,29.98,ENE,59,0.0,0.0,82,0.00,,,0.00,weatherlink.com 1.10,2013-10-20 07:43:00,
2013-10-20 03:58:00,43.4,38.0,29.98,ENE,69,0.0,3.0,82,0.00,,,0.00,weatherlink.com 1.10,2013-10-20 07:58:00,
2013-10-20 04:13:00,43.2,38.0,29.98,East,101,1.0,3.0,81,0.00,,,0.00,weatherlink.com 1.10,2013-10-20 08:13:00,
2013-10-20 04:28:00,42.8,37.0,29.98,ENE,61,0.0,2.0,81,0.00,,,0.00,weatherlink.com 1.10,2013-10-20 08:28:00,
2013-10-20 04:43:00,42.4,37.0,29.98,ENE,61,0.0,1.0,82,0.00,,,0.00,weatherlink.com 1.10,2013-10-20 08:43:00,
2013-10-20 04:58:00,41.9,37.0,29.99,ENE,61,1.0,1.0,83,0.00,,,0.00,weatherlink.com 1.10,2013-10-20 08:58:00,
2013-10-20 05:13:00,41.4,37.0,29.99,East,83,1.0,3.0,83,0.00,,,0.00,weatherlink.com 1.10,2013-10-20 09:13:00,
2013-10-20 05:28:00,40.9,36.0,30.00,NE,56,0.0,1.0,83,0.00,,,0.00,weatherlink.com 1.10,2013-10-20 09:28:00,
2013-10-20 05:43:00,40.8,36.0,30.01,ENE,61,1.0,4.0,83,0.00,,,0.00,weatherlink.com 1.10,2013-10-20 09:43:00,
2013-10-20 05:58:00,40.8,35.0,30.01,NNE,28,0.0,3.0,81,0.00,,,0.00,weatherlink.com 1.10,2013-10-20 09:58:00,
2013-10-20 06:13:00,40.8,35.0,30.01,NE,53,0.0,2.0,80,0.00,,,0.00,weatherlink.com 1.10,2013-10-20 10:13:00,
2013-10-20 06:28:00,40.1,35.0,30.02,East,101,0.0,1.0,81,0.00,,,0.00,weatherlink.com 1.10,2013-10-20 10:28:00,
2013-10-20 06:43:00,39.7,35.0,30.02,NE,56,0.0,3.0,82,0.00,,,0.00,weatherlink.com 1.10,2013-10-20 10:43:00,
2013-10-20 06:58:00,38.9,34.0,30.03,NNE,26,0.0,2.0,82,0.00,,,0.00,weatherlink.com 1.10,2013-10-20 10:58:00,
2013-10-20 07:13:00,38.2,34.0,30.03,NNE,26,0.0,0.0,83,0.00,,,0.00,weatherlink.com 1.10,2013-10-20 11:13:00,
2013-10-20 07:28:00,37.2,33.0,30.03,NNE,26,0.0,0.0,84,0.00,,,0.00,weatherlink.com 1.10,2013-10-20 11:28:00,
2013-10-20 07:43:00,36.3,33.0,30.04,NNE,26,0.0,0.0,86,0.00,,,0.00,weatherlink.com 1.10,2013-10-20 11:43:00,
2013-10-20 07:58:00,35.7,32.0,30.05,NNE,26,0.0,0.0,86,0.00,,,0.00,weatherlink.com 1.10,2013-10-20 11:58:00,
2013-10-20 08:13:00,35.5,32.0,30.05,NNE,26,0.0,0.0,88,0.00,,,0.00,weatherlink.com 1.10,2013-10-20 12:13:00,
2013-10-20 08:28:00,36.1,33.0,30.06,NNE,26,0.0,0.0,89,0.00,,,0.00,weatherlink.com 1.10,2013-10-20 12:28:00,
2013-10-20 08:45:00,36.8,34.0,30.07,NNE,26,0.0,1.0,89,0.00,,,0.00,weatherlink.com 1.10,2013-10-20 12:45:00,
2013-10-20 08:58:00,37.4,35.0,30.07,NNE,26,0.0,0.0,89,0.00,,,0.00,weatherlink.com 1.10,2013-10-20 12:58:00,
2013-10-20 09:14:00,38.5,35.0,30.07,East,101,0.0,5.0,88,0.00,,,0.00,weatherlink.com 1.10,2013-10-20 13:14:00,
2013-10-20 09:29:00,39.8,36.0,30.07,ENE,78,0.0,4.0,85,0.00,,,0.00,weatherlink.com 1.10,2013-10-20 13:29:00,
2013-10-20 09:44:00,42.0,37.0,30.08,ENE,78,0.0,2.0,82,0.00,,,0.00,weatherlink.com 1.10,2013-10-20 13:44:00,
2013-10-20 09:59:00,43.8,37.0,30.08,East,86,0.0,5.0,77,0.00,,,0.00,weatherlink.com 1.10,2013-10-20 13:59:00,
2013-10-20 10:14:00,44.2,36.0,30.08,East,98,0.0,5.0,73,0.00,,,0.00,weatherlink.com 1.10,2013-10-20 14:14:00,
2013-10-20 10:29:00,45.1,36.0,30.08,East,98,0.0,3.0,70,0.00,,,0.00,weatherlink.com 1.10,2013-10-20 14:29:00,
2013-10-20 10:44:00,46.0,36.0,30.08,East,101,1.0,5.0,67,0.00,,,0.00,weatherlink.com 1.10,2013-10-20 14:44:00,
2013-10-20 10:59:00,47.5,35.0,30.08,East,101,0.0,6.0,63,0.00,,,0.00,weatherlink.com 1.10,2013-10-20 14:59:00,
2013-10-20 11:14:00,48.6,36.0,30.08,East,84,0.0,5.0,62,0.00,,,0.00,weatherlink.com 1.10,2013-10-20 15:14:00,
2013-10-20 11:29:00,49.4,34.0,30.08,East,98,1.0,4.0,55,0.00,,,0.00,weatherlink.com 1.10,2013-10-20 15:29:00,
2013-10-20 11:44:00,49.8,32.0,30.08,ESE,105,0.0,4.0,51,0.00,,,0.00,weatherlink.com 1.10,2013-10-20 15:44:00,
2013-10-20 11:59:00,50.6,33.0,30.08,East,91,3.0,5.0,52,0.00,,,0.00,weatherlink.com 1.10,2013-10-20 15:59:00,
2013-10-20 12:14:00,51.5,33.0,30.08,ENE,69,2.0,3.0,49,0.00,,,0.00,weatherlink.com 1.10,2013-10-20 16:14:00,
2013-10-20 12:30:00,52.7,31.0,30.08,ENE,78,1.0,4.0,43,0.00,,,0.00,weatherlink.com 1.10,2013-10-20 16:30:00,
2013-10-20 12:44:00,53.8,31.0,30.07,East,92,0.0,5.0,42,0.00,,,0.00,weatherlink.com 1.10,2013-10-20 16:44:00,
2013-10-20 12:59:00,55.1,28.0,30.07,East,92,6.0,6.0,36,0.00,,,0.00,weatherlink.com 1.10,2013-10-20 16:59:00,
2013-10-20 13:14:00,56.5,28.0,30.06,East,97,0.0,3.0,34,0.00,,,0.00,weatherlink.com 1.10,2013-10-20 17:14:00,
2013-10-20 13:29:00,57.5,28.0,30.05,SE,128,2.0,7.0,32,0.00,,,0.00,weatherlink.com 1.10,2013-10-20 17:29:00,
2013-10-20 13:44:00,59.0,30.0,30.05,East,95,0.0,5.0,34,0.00,,,0.00,weatherlink.com 1.10,2013-10-20 17:44:00,
2013-10-20 13:59:00,58.6,31.0,30.04,East,84,0.0,5.0,35,0.00,,,0.00,weatherlink.com 1.10,2013-10-20 17:59:00,
2013-10-20 14:14:00,58.2,31.0,30.04,ENE,71,1.0,5.0,35,0.00,,,0.00,weatherlink.com 1.10,2013-10-20 18:14:00,
2013-10-20 14:29:00,58.6,32.0,30.04,ESE,109,0.0,5.0,36,0.00,,,0.00,weatherlink.com 1.10,2013-10-20 18:29:00,
2013-10-20 14:44:00,59.0,30.0,30.03,ENE,76,1.0,7.0,34,0.00,,,0.00,weatherlink.com 1.10,2013-10-20 18:44:00,
2013-10-20 14:59:00,58.9,32.0,30.03,East,96,0.0,6.0,36,0.00,,,0.00,weatherlink.com 1.10,2013-10-20 18:59:00,
2013-10-20 15:14:00,59.0,33.0,30.03,East,94,1.0,5.0,37,0.00,,,0.00,weatherlink.com 1.10,2013-10-20 19:14:00,
2013-10-20 15:29:00,58.9,32.0,30.03,ENE,65,3.0,7.0,36,0.00,,,0.00,weatherlink.com 1.10,2013-10-20 19:29:00,
2013-10-20 15:45:00,60.1,33.0,30.03,East,101,0.0,4.0,36,0.00,,,0.00,weatherlink.com 1.10,2013-10-20 19:45:00,
2013-10-20 16:00:00,61.1,32.0,30.03,East,89,0.0,5.0,34,0.00,,,0.00,weatherlink.com 1.10,2013-10-20 20:00:00,
2013-10-20 16:16:00,62.0,36.0,30.03,East,89,5.0,5.0,38,0.00,,,0.00,weatherlink.com 1.10,2013-10-20 20:16:00,
2013-10-20 16:30:00,61.1,34.0,30.03,NE,56,0.0,7.0,37,0.00,,,0.00,weatherlink.com 1.10,2013-10-20 20:30:00,
2013-10-20 16:45:00,61.7,39.0,30.03,East,88,1.0,4.0,43,0.00,,,0.00,weatherlink.com 1.10,2013-10-20 20:45:00,
2013-10-20 17:00:00,62.6,42.0,30.03,ENE,61,0.0,1.0,47,0.00,,,0.00,weatherlink.com 1.10,2013-10-20 21:00:00,
2013-10-20 17:15:00,62.5,40.0,30.04,ENE,61,0.0,2.0,44,0.00,,,0.00,weatherlink.com 1.10,2013-10-20 21:15:00,
2013-10-20 17:30:00,59.7,39.0,30.04,WSW,242,1.0,4.0,47,0.00,,,0.00,weatherlink.com 1.10,2013-10-20 21:30:00,
2013-10-20 17:45:00,57.8,41.0,30.04,NE,35,0.0,2.0,54,0.00,,,0.00,weatherlink.com 1.10,2013-10-20 21:45:00,
2013-10-20 18:00:00,55.7,41.0,30.05,NNW,340,0.0,1.0,58,0.00,,,0.00,weatherlink.com 1.10,2013-10-20 22:00:00,
2013-10-20 18:15:00,53.6,41.0,30.05,NNW,340,0.0,1.0,62,0.00,,,0.00,weatherlink.com 1.10,2013-10-20 22:15:00,
2013-10-20 18:30:00,51.9,41.0,30.05,NNW,340,0.0,0.0,66,0.00,,,0.00,weatherlink.com 1.10,2013-10-20 22:30:00,
2013-10-20 18:45:00,50.6,40.0,30.06,NNW,340,0.0,0.0,68,0.00,,,0.00,weatherlink.com 1.10,2013-10-20 22:45:00,
2013-10-20 19:00:00,49.2,40.0,30.06,NNW,340,0.0,1.0,70,0.00,,,0.00,weatherlink.com 1.10,2013-10-20 23:00:00,
2013-10-20 19:15:00,48.0,39.0,30.07,NNW,340,0.0,1.0,72,0.00,,,0.00,weatherlink.com 1.10,2013-10-20 23:15:00,
2013-10-20 19:30:00,46.9,40.0,30.07,WNW,302,0.0,3.0,76,0.00,,,0.00,weatherlink.com 1.10,2013-10-20 23:30:00,
2013-10-20 19:45:00,46.0,40.0,30.07,WNW,302,0.0,2.0,78,0.00,,,0.00,weatherlink.com 1.10,2013-10-20 23:45:00,
2013-10-20 20:00:00,45.4,39.0,30.08,NW,304,1.0,2.0,78,0.00,,,0.00,weatherlink.com 1.10,2013-10-21 00:00:00,
2013-10-20 20:15:00,44.6,39.0,30.09,NW,304,0.0,1.0,81,0.00,,,0.00,weatherlink.com 1.10,2013-10-21 00:15:00,
2013-10-20 20:30:00,43.8,38.0,30.09,NW,304,0.0,0.0,81,0.00,,,0.00,weatherlink.com 1.10,2013-10-21 00:30:00,
2013-10-20 20:45:00,43.1,38.0,30.10,NW,304,0.0,0.0,82,0.00,,,0.00,weatherlink.com 1.10,2013-10-21 00:45:00,
2013-10-20 21:00:00,42.6,38.0,30.10,NW,304,0.0,1.0,83,0.00,,,0.00,weatherlink.com 1.10,2013-10-21 01:00:00,
2013-10-20 21:15:00,42.0,38.0,30.10,NW,304,0.0,0.0,84,0.00,,,0.00,weatherlink.com 1.10,2013-10-21 01:15:00,
2013-10-20 21:30:00,41.5,37.0,30.11,NW,304,0.0,0.0,83,0.00,,,0.00,weatherlink.com 1.10,2013-10-21 01:30:00,
2013-10-20 21:45:00,40.8,37.0,30.11,NW,304,0.0,0.0,85,0.00,,,0.00,weatherlink.com 1.10,2013-10-21 01:45:00,
2013-10-20 22:00:00,40.2,36.0,30.11,NW,304,0.0,0.0,86,0.00,,,0.00,weatherlink.com 1.10,2013-10-21 02:00:00,
2013-10-20 22:15:00,39.9,36.0,30.12,NW,304,0.0,0.0,87,0.00,,,0.00,weatherlink.com 1.10,2013-10-21 02:15:00,
2013-10-20 22:30:00,39.4,36.0,30.12,NW,304,0.0,0.0,88,0.00,,,0.00,weatherlink.com 1.10,2013-10-21 02:30:00,
2013-10-20 22:45:00,38.9,36.0,30.12,NW,304,0.0,0.0,88,0.00,,,0.00,weatherlink.com 1.10,2013-10-21 02:45:00,
2013-10-20 23:00:00,38.6,35.0,30.12,NW,304,0.0,0.0,88,0.00,,,0.00,weatherlink.com 1.10,2013-10-21 03:00:00,
2013-10-20 23:15:00,38.1,35.0,30.12,NW,304,0.0,0.0,88,0.00,,,0.00,weatherlink.com 1.10,2013-10-21 03:15:00,
2013-10-20 23:30:00,38.9,37.0,30.12,WSW,252,1.0,4.0,91,0.00,,,0.00,weatherlink.com 1.10,2013-10-21 03:30:00,
2013-10-20 23:45:00,38.5,36.0,30.13,WSW,252,0.0,1.0,89,0.00,,,0.00,weatherlink.com 1.10,2013-10-21 03:45:00,